Satellite-Ground Cal/Val Region Overpasses Predictions

Prediction of Satellite NPP Overpassing Cal/Val Region: PacNW

Region Location: (Latitude: 10.00, Longitude: 139.50) to (Latitude: 22.70, Longitude: 165.60).

Table of predicted overpasses for the next 14.0 days since TLE Epoch: 5/8/2021
Interval Starting Time Starting Location Ending Time Ending Location
1 05/08/2021 15:16:51 ( 22.69, 155.62) 05/08/2021 15:20:27 ( 10.01, 152.60)
2 05/09/2021 02:25:57 ( 10.02, 163.13) 05/09/2021 02:29:33 ( 22.70, 160.12)
3 05/09/2021 14:57:51 ( 22.66, 160.37) 05/09/2021 15:01:26 ( 10.04, 157.36)
4 05/10/2021 02:09:43 ( 19.80, 165.59) 05/10/2021 02:10:32 ( 22.67, 164.88)
5 05/10/2021 03:48:27 ( 10.05, 142.51) 05/10/2021 03:52:02 ( 22.68, 139.50)
6 05/10/2021 14:38:49 ( 22.68, 165.13) 05/10/2021 14:42:25 ( 10.00, 162.11)
7 05/10/2021 16:20:19 ( 22.68, 139.75) 05/10/2021 16:20:36 ( 21.69, 139.50)
8 05/11/2021 03:29:25 ( 10.03, 147.27) 05/11/2021 03:33:00 ( 22.65, 144.26)
9 05/11/2021 16:01:19 ( 22.65, 144.50) 05/11/2021 16:04:54 ( 10.03, 141.50)
10 05/12/2021 03:10:24 ( 10.00, 152.03) 05/12/2021 03:14:00 ( 22.68, 149.01)
11 05/12/2021 15:42:17 ( 22.67, 149.26) 05/12/2021 15:45:52 ( 10.05, 146.26)
12 05/13/2021 02:51:23 ( 10.04, 156.78) 05/13/2021 02:54:58 ( 22.66, 153.77)
13 05/13/2021 15:23:16 ( 22.70, 154.02) 05/13/2021 15:26:52 ( 10.02, 151.00)
14 05/14/2021 02:32:22 ( 10.01, 161.54) 05/14/2021 02:35:58 ( 22.69, 158.52)
15 05/14/2021 15:04:16 ( 22.67, 158.77) 05/14/2021 15:07:51 ( 10.05, 155.76)
16 05/15/2021 02:14:12 ( 13.04, 165.59) 05/15/2021 02:16:56 ( 22.67, 163.28)
17 05/15/2021 03:54:51 ( 10.05, 140.91) 05/15/2021 03:56:34 ( 16.10, 139.50)
18 05/15/2021 14:45:14 ( 22.69, 163.53) 05/15/2021 14:48:50 ( 10.01, 160.51)
19 05/16/2021 03:35:50 ( 10.02, 145.67) 05/16/2021 03:39:25 ( 22.65, 142.66)
20 05/16/2021 14:29:25 ( 11.45, 165.60) 05/16/2021 14:29:49 ( 10.04, 165.27)
21 05/16/2021 16:07:44 ( 22.66, 142.90) 05/16/2021 16:11:19 ( 10.04, 139.90)
22 05/17/2021 03:16:49 ( 10.06, 150.42) 05/17/2021 03:20:24 ( 22.68, 147.41)
23 05/17/2021 15:48:42 ( 22.68, 147.66) 05/17/2021 15:52:18 ( 10.00, 144.64)
24 05/18/2021 02:57:48 ( 10.03, 155.18) 05/18/2021 03:01:23 ( 22.66, 152.17)
25 05/18/2021 15:29:42 ( 22.65, 152.41) 05/18/2021 15:33:17 ( 10.03, 149.40)
26 05/19/2021 02:38:46 ( 10.01, 159.94) 05/19/2021 02:42:22 ( 22.69, 156.92)
27 05/19/2021 15:10:40 ( 22.67, 157.17) 05/19/2021 15:14:15 ( 10.05, 154.17)
28 05/20/2021 02:19:46 ( 10.04, 164.68) 05/20/2021 02:23:21 ( 22.67, 161.68)
29 05/20/2021 14:51:39 ( 22.70, 161.93) 05/20/2021 14:55:15 ( 10.02, 158.91)
30 05/21/2021 03:42:14 ( 10.02, 144.07) 05/21/2021 03:45:49 ( 22.65, 141.06)
31 05/21/2021 14:33:53 ( 18.26, 165.60) 05/21/2021 14:36:13 ( 10.04, 163.67)
32 05/21/2021 16:14:08 ( 22.66, 141.30) 05/21/2021 16:16:14 ( 15.27, 139.51)
